Hourly Data Report for February 16, 2019

TORONTO INTL A
ONTARIO
Current Station Operator: NAVCAN

43°40'36.000" N
79°37'50.000" W
173.40 m
6158731
71624
YYZ

Download Data

Hourly Data (February 2019)
Hourly Data Report for February 16, 2019
TIME
LST
Temp Definition
°C
Dew Point Definition
°C
Rel Hum Definition
%
Precip. Amount Definition
mm

Wind Dir Definition
10's deg

Wind Spd Definition
km/h
Visibility Definition
km
Stn Press Definition
kPa
Hmdx Definition


Wind Chill Definition


Weather Definition


00:00 -3.8 -8.3 71   24 22 24.1 98.80   -10 Snow
01:00 -3.5 -7.6 73   25 23 19.3 98.86   -10 Snow
02:00 -3.1 -6.8 76   28 13 19.3 98.96   -8 Snow
03:00 -3.5 -7.4 74   32 32 24.1 99.05   -11 LegendNANA
04:00 -4.7 -9.5 69   30 31 24.1 99.12   -13 Mainly Clear
05:00 -5.4 -10.8 66   30 27 24.1 99.22   -13 LegendNANA
06:00 -6.3 -11.7 66   32 22 24.1 99.31   -14 LegendNANA
07:00 -6.6 -11.8 66   32 13 24.1 99.39   -12 Mainly Clear
08:00 -7.1 -12.2 67   30 13 24.1 99.48   -13 LegendNANA
09:00 -6.4 -11.7 66   31 14 24.1 99.57   -12 LegendNANA
10:00 -5.9 -11.1 67   35 11 24.1 99.58   -11 Snow Showers
11:00 -5.7 -10.7 68   32 13 24.1 99.65   -11 Snow
12:00 -4.9 -10.2 67   32 18 24.1 99.68   -11 LegendNANA
13:00 -4.3 -9.9 65   32 18 24.1 99.63   -10 Mainly Clear
14:00 -3.7 -9.9 63   36 9 24.1 99.61   -7 LegendNANA
15:00 -3.0 -9.9 59   32 13 24.1 99.65   -8 LegendNANA
16:00 -3.3 -10.3 59   35 11 24.1 99.72   -8 Mainly Clear
17:00 -3.8 -10.8 59   1 16 24.1 99.76   -9 LegendNANA
18:00 -4.7 -11.3 60   1 18 24.1 99.82   -11 LegendNANA
19:00 -6.1 -11.8 64   1 22 24.1 99.89   -13 Clear
20:00 -6.5 -11.9 66   1 18 24.1 99.90   -13 LegendNANA
21:00 -6.7 -11.9 67   2 12 24.1 99.90   -12 LegendNANA
22:00 -6.2 -11.3 67   1 21 24.1 99.93   -13 Mostly Cloudy
23:00 -6.4 -11.5 67   35 13 24.1 99.99   -12 Snow

Notes on Data Quality.

Legend

  • E = Estimated
  • M = Missing
  • NA = Not Available*
  • [empty] = Indicates an unobserved value
Date modified: